Find Starlink 30412

NORAD ID: 57854 Int'l Des: 2023-141 Owner: SPXS Country: US Constellation: starlink operational
LEOCIRCULAR

实时位置

正在加载3D地球...

关于 Starlink 30412

正在加载描述...

即将过境

Passes for default location (London). Set your location on the main map for personalized predictions.

高度历史

Loading altitude history...

两行轨道根数

1 57854U 23141Q 26125.00377520 -.00001809 00000-0 -48947-4 0 9996
2 57854 53.1613 22.2862 0001013 81.6031 278.5084 15.30207961148951
Epoch: May 5, 2026 • Age: 15 hours

当前状态

高度 493.9 km
速度 7.62 km/s
星下点 -51.87°S, 177.63°E
发射日期 Sep 12, 2023
运行时间 2.6 years
类型 internet

技术详情

分类 Payload
质量 730.00 kg
干质量 700.00 kg
总质量 730.00 kg
长度 0.30 m
直径 4.10 m
跨度 29.00 m
形状 Box + pan
制造商 SPXS
平台类型 Starlink V2M
阶段状态 In Orbit
所有者/国家 SPXS/US

Most Searched